Wetbulb
44.79 49.91 50.11 49.60 49.78 49.72 45.99 45.38 42.72 45.55 47.14 52.29 55.75 57.59 58.75 60.15 61.08 62.20 62.30 63.21 64.25 63.78 64.83 65.99 65.43 66.01 66.13 66.91 66.05 66.79 66.50 66.71 66.44 66.77 67.49 67.28 69.22 70.86 71.66 71.92 71.95 70.52 69.08 70.03
42.41 48.29 50.87 48.72 50.63 50.90 50.55 50.73 48.62 48.44 47.51 53.64 55.15 57.14 58.05 60.04 60.92 61.99 63.08 63.25 63.70 64.13 64.30 65.78 66.66 66.61 66.95 67.02 66.75 66.19 65.77 67.06 65.83 64.70 65.39 66.39 68.14 68.63 69.37 70.51 72.02 71.79 71.24 71.57
39.76 46.73 47.23 44.34 48.37 49.64 50.38 50.85 50.11 45.86 49.43 54.63 55.12 56.42 57.99 59.23 61.21 61.79 63.52 65.20 64.45 65.39 65.07 64.82 65.81 67.81 67.71 67.96 67.85 65.85 66.32 66.79 66.55 65.30 66.46 66.91 68.23 67.62 67.47 69.22 71.36 71.48 71.54 71.23
40.15 43.16 36.79 46.79 51.93 53.06 51.52 53.08 53.30 51.38 51.71 53.94 56.83 57.96 57.05 59.54 61.32 61.28 61.68 65.14 65.27 66.64 66.28 65.66 65.82 66.51 67.04 67.87 67.76 67.40 67.20 67.18 66.01 66.21 67.13 68.05 67.87 65.50 65.37 67.17 69.86 69.72 71.25 71.93
38.73 38.07 42.74 48.49 51.40 50.80 49.41 49.45 54.36 52.92 54.49 54.99 57.56 56.95 56.22 60.71 61.59 61.06 62.36 63.43 64.83 66.10 65.77 65.64 66.60 67.11 66.44 66.15 66.84 67.58 66.95 66.86 67.89 68.39 68.46 68.44 68.39 67.29 66.19 68.79 69.95 70.84 71.41 71.55
39.61 36.32 36.45 45.13 53.45 54.55 52.86 45.09 54.67 55.46 54.43 54.64 56.61 52.35 54.77 59.56 61.39 62.00 64.42 65.62 65.78 65.55 65.64 64.93 64.72 66.37 64.68 63.98 64.51 65.33 67.02 68.01 67.85 68.12 67.47 67.53 67.35 68.50 69.54 69.57 69.34 69.57 69.41 69.85
44.14 41.70 45.18 52.01 53.97 54.81 43.80 46.35 55.66 57.30 56.11 54.81 54.94 57.12 58.30 60.77 62.45 63.65 63.93 63.65 64.39 65.68 64.65 64.48 64.48 64.01 62.47 61.46 62.41 65.06 67.74 66.63 65.44 65.20 65.30 66.22 65.50 65.21 65.88 67.42 68.30 68.30 68.07 68.07
41.98 39.36 38.85 54.88 53.75 47.66 50.96 54.49 55.83 56.41 56.42 56.69 55.67 57.48 60.09 61.90 61.60 62.13 62.36 62.41 64.85 64.76 63.88 62.82 63.18 62.68 61.72 62.88 64.39 66.03 66.25 64.40 63.84 64.87 65.76 66.23 62.93 62.69 62.78 63.95 64.89 66.45 67.19 66.10
43.33 43.52 50.08 52.99 53.83 54.14 53.46 54.26 55.77 54.77 56.50 58.27 58.11 59.48 60.72 60.76 61.10 61.35 61.15 62.24 63.21 63.03 62.32 62.14 62.77 63.08 61.99 62.12 62.46 63.48 67.09 64.28 63.18 62.24 62.42 61.70 61.88 62.77 62.65 62.97 63.34 63.75 64.99 63.93
46.78 49.74 52.21 53.93 56.30 56.11 56.09 55.07 57.32 57.32 58.49 58.15 58.33 60.63 60.72 60.53 60.09 59.65 58.70 60.21 61.36 62.65 62.45 62.02 62.45 62.66 62.07 62.22 62.94 64.72 64.99 64.92 62.90 58.59 54.98 55.47 56.62 58.37 58.15 59.34 60.45 60.15 60.13 59.79
46.27 49.92 53.85 54.41 55.53 55.89 57.71 58.46 59.55 61.01 60.62 59.95 59.39 57.62 58.19 59.63 58.76 58.39 58.35 58.34 61.04 61.24 62.97 63.28 62.88 62.03 62.70 62.44 61.69 61.97 61.94 64.62 61.31 56.29 55.12 52.56 49.33 48.66 53.09 52.64 51.31 57.65 58.70 57.79
44.70 48.60 49.59 52.27 55.84 58.05 57.39 56.94 57.94 60.10 59.23 60.95 60.79 58.26 59.24 59.95 59.63 58.77 57.62 57.93 57.66 59.76 62.81 63.58 63.06 62.53 63.00 61.52 61.50 60.32 60.16 61.07 62.37 57.54 55.35 55.66 54.86 53.07 47.85 46.09 45.06 44.39 46.62 52.60
50.91 53.21 54.44 55.27 56.11 58.35 58.07 57.96 59.42 61.18 60.21 59.25 59.81 60.01 60.15 59.68 59.25 59.09 58.42 59.58 59.02 61.32 63.31 63.47 62.95 62.83 61.88 61.38 60.76 59.70 58.95 59.92 61.78 60.24 59.10 56.81 56.65 56.20 54.82 52.12 46.55 44.23 43.88 44.59
54.38 54.58 52.73 54.87 53.66 57.26 58.53 58.95 59.30 60.69 60.80 59.90 60.43 60.76 60.48 59.41 59.57 59.63 60.14 61.08 60.85 61.03 61.88 61.57 63.15 62.57 62.75 61.87 60.59 59.51 58.53 57.49 61.47 60.79 60.57 59.50 58.51 57.91 57.09 56.81 56.10 54.40 48.64 45.89
54.49 54.97 54.52 55.10 55.53 55.26 56.91 59.01 57.40 57.38 58.95 59.30 60.34 59.97 59.24 59.07 59.68 60.29 61.72 63.74 62.93 61.86 61.45 62.02 62.60 62.49 62.89 61.87 60.15 58.89 58.65 60.63 61.29 61.53 60.43 59.54 60.20 58.88 58.67 57.63 55.42 53.41 52.70 49.70
54.51 55.08 54.06 53.53 53.72 55.86 56.63 58.26 57.16 57.80 59.65 59.87 60.53 61.45 61.42 60.72 60.96 61.27 60.77 61.29 61.43 60.53 61.49 62.55 61.60 62.08 63.19 61.91 59.97 59.03 58.79 59.26 60.39 60.73 60.15 59.95 59.20 59.02 57.93 56.51 54.80 54.23 54.43 54.65
51.13 51.39 53.13 53.12 53.90 55.18 55.34 58.08 56.62 57.19 58.35 58.01 58.25 59.35 61.27 60.86 58.89 59.03 60.08 60.32 61.41 61.52 61.15 61.44 61.41 61.80 62.42 62.20 60.65 59.74 59.08 59.00 60.55 60.02 59.56 60.27 60.04 59.16 58.01 57.07 55.84 55.10 55.54 54.84
55.30 55.75 56.30 56.19 55.56 56.34 57.38 57.16 57.61 58.84 59.17 60.22 59.96 59.37 58.07 57.47 57.63 58.07 59.64 60.84 60.55 60.27 60.11 60.86 62.05 61.73 61.48 62.01 61.39 60.52 59.00 57.41 57.47 56.81 56.61 59.05 59.82 59.96 59.36 58.31 57.17 55.86 54.58 54.14
58.27 58.09 58.28 57.31 56.98 56.24 57.22 56.18 56.45 58.32 59.75 59.78 58.95 57.58 57.99 56.38 58.03 58.14 60.03 59.35 58.75 58.33 59.45 61.31 62.04 61.44 59.66 61.00 62.13 61.06 59.82 58.33 57.93 57.51 57.31 56.14 56.83 56.99 56.12 55.66 55.06 54.62 54.88 53.73
58.26 59.88 58.79 56.80 57.25 56.40 56.12 57.39 57.21 57.50 59.14 58.90 58.99 58.28 56.88 57.58 58.72 58.55 59.42 58.61 59.00 59.27 61.29 61.48 61.42 59.65 59.30 59.79 62.89 61.07 60.88 60.20 59.30 58.71 58.35 57.07 56.59 56.59 56.77 53.83 55.74 55.13 54.58 53.82
56.13 58.42 58.92 57.90 57.58 58.47 59.44 57.99 58.07 57.65 59.03 59.37 58.41 58.14 56.63 57.88 58.83 58.16 57.72 57.62 59.06 59.68 61.57 59.46 58.97 58.66 58.60 58.55 59.83 57.96 56.98 57.42 59.86 59.70 59.67 59.15 58.37 58.03 58.03 57.23 56.20 54.24 53.02 52.38
57.86 56.25 58.05 56.35 56.63 57.27 58.02 59.34 59.36 59.94 58.60 59.00 59.59 58.69 57.39 57.83 59.22 58.54 58.83 58.73 58.83 57.24 59.44 59.22 59.05 59.46 58.88 61.02 58.12 56.49 55.73 54.96 54.76 56.32 60.36 59.88 57.14 56.76 58.36 58.19 56.12 55.12 53.79 51.45
58.54 59.09 59.15 59.21 57.04 57.23 57.57 59.03 60.03 61.12 59.87 59.68 59.35 58.78 58.30 58.48 59.88 57.89 57.43 59.78 59.21 58.02 59.80 59.77 59.22 58.65 58.54 57.95 57.39 57.32 56.49 54.53 55.13 54.79 56.23 56.15 55.23 53.89 52.55 56.03 56.86 56.82 55.73 53.17
56.55 58.42 58.99 58.87 57.12 57.39 56.49 57.28 58.14 59.69 59.96 60.73 59.94 59.35 58.92 58.16 58.94 60.04 60.55 57.82 56.84 56.22 58.80 59.25 58.60 56.71 56.04 56.21 56.13 56.40 56.58 56.79 55.95 55.69 55.57 53.02 55.23 54.11 53.62 53.39 51.18 52.36 54.65 51.44
55.72 56.86 56.66 57.16 56.31 56.27 54.57 55.41 57.72 58.07 59.95 60.82 60.02 60.56 60.36 59.93 59.22 59.48 59.89 60.04 55.93 56.86 58.90 55.75 56.15 55.94 56.11 55.49 55.41 55.45 55.26 55.92 56.29 56.31 55.01 54.34 54.59 53.92 53.09 52.73 53.76 52.79 53.11 55.06
55.39 55.16 55.54 55.13 55.43 56.73 57.45 56.98 55.69 56.37 56.66 57.56 58.91 59.24 60.02 58.37 58.67 58.79 58.55 57.75 58.92 57.61 60.18 57.93 54.64 53.89 54.18 55.71 56.22 56.38 55.94 55.23 55.23 55.32 54.76 54.98 54.81 54.28 53.54 54.15 54.17 53.98 53.89 54.76
53.51 52.72 56.01 55.09 56.14 56.19 57.51 57.44 57.90 57.19 56.67 57.86 57.88 59.02 58.41 58.09 58.11 58.15 57.46 57.57 57.40 58.37 57.50 56.12 54.54 53.60 54.24 55.28 55.83 55.76 54.86 54.24 51.93 53.89 54.25 54.61 54.66 55.16 55.07 54.65 55.15 55.88 55.52 55.32
MSLP
1003.45 1003.08 1002.97 1002.92 1003.34 1004.32 1005.39 1005.98 1006.74 1006.73 1006.85 1005.91 1005.44 1005.39 1005.72 1006.16 1006.94 1007.60 1008.29 1009.13 1009.78 1010.32 1010.86 1011.10 1011.45 1011.58 1012.00 1012.27 1012.37 1012.43 1012.77 1013.33 1013.67 1013.74 1012.89 1012.97 1013.46 1013.33 1013.42 1013.84 1014.05 1014.26 1014.62 1014.75
1003.98 1003.34 1003.05 1003.11 1002.93 1003.36 1004.12 1004.74 1005.14 1005.52 1005.92 1005.09 1005.52 1005.47 1005.82 1006.02 1006.46 1007.01 1007.97 1008.70 1009.24 1009.84 1010.42 1011.23 1011.52 1011.47 1011.78 1011.84 1012.08 1012.55 1012.82 1013.20 1013.71 1013.33 1013.21 1012.60 1012.80 1012.87 1012.86 1012.89 1013.26 1013.51 1013.63 1013.93
1004.95 1004.04 1003.54 1003.72 1002.90 1002.82 1003.11 1003.44 1004.14 1004.45 1004.36 1004.37 1005.17 1005.35 1005.10 1005.57 1005.76 1006.39 1007.40 1008.39 1009.04 1009.79 1010.29 1010.84 1011.13 1011.28 1011.56 1011.61 1011.87 1012.29 1012.58 1012.54 1012.57 1012.42 1012.45 1012.48 1012.70 1012.84 1012.54 1012.47 1012.51 1012.82 1013.07 1013.14
1005.87 1004.84 1004.29 1003.11 1002.19 1002.04 1002.65 1002.93 1003.06 1003.17 1003.28 1003.25 1003.15 1003.62 1004.20 1004.93 1005.54 1006.37 1006.99 1008.10 1008.83 1009.72 1010.33 1010.61 1010.77 1011.01 1011.22 1011.37 1011.66 1011.79 1011.83 1011.70 1011.72 1011.47 1011.59 1012.06 1012.28 1012.69 1012.19 1012.11 1012.13 1012.52 1012.36 1012.44
1006.68 1005.87 1004.62 1003.34 1002.65 1002.41 1002.52 1002.31 1002.39 1002.46 1002.23 1001.94 1002.85 1004.01 1004.71 1004.94 1005.30 1005.89 1006.81 1007.75 1008.61 1009.37 1010.22 1010.55 1010.64 1010.82 1011.15 1011.40 1011.43 1011.46 1011.48 1011.53 1011.39 1011.39 1011.77 1012.04 1011.21 1011.81 1011.58 1011.67 1011.85 1011.66 1011.63 1011.93
1007.69 1006.82 1005.30 1003.55 1002.18 1001.89 1002.50 1002.93 1002.59 1002.76 1002.89 1002.47 1003.45 1004.56 1004.45 1004.73 1005.24 1006.13 1006.76 1007.49 1008.31 1009.09 1009.90 1010.50 1010.65 1010.75 1011.15 1011.31 1011.33 1011.37 1011.29 1011.31 1011.53 1011.69 1012.02 1012.09 1011.99 1011.84 1011.59 1011.33 1011.62 1011.60 1011.51 1011.40
1006.94 1006.93 1005.91 1004.32 1003.48 1002.72 1003.17 1004.00 1003.33 1003.19 1003.54 1003.57 1003.35 1002.62 1003.01 1004.38 1005.22 1005.78 1006.74 1007.61 1008.21 1008.87 1009.56 1010.12 1010.69 1010.96 1011.32 1011.41 1011.45 1011.34 1011.21 1011.40 1011.72 1011.90 1012.14 1012.03 1011.90 1011.79 1011.70 1011.51 1010.87 1011.30 1011.68 1011.57
1007.32 1006.97 1005.93 1005.10 1004.94 1004.04 1003.43 1003.09 1002.80 1003.25 1003.89 1004.14 1002.63 1002.93 1003.53 1004.42 1005.40 1006.10 1006.91 1007.73 1008.35 1009.16 1009.81 1010.08 1010.40 1010.99 1011.61 1011.55 1011.46 1011.29 1011.50 1011.86 1012.10 1012.12 1012.08 1011.98 1011.99 1011.90 1011.91 1011.87 1011.64 1011.53 1011.70 1011.76
1008.32 1007.46 1006.24 1005.79 1005.60 1004.78 1003.83 1003.35 1004.30 1004.42 1004.00 1003.74 1003.80 1003.37 1003.91 1004.96 1005.63 1006.34 1007.03 1007.87 1008.47 1009.11 1010.03 1010.37 1010.31 1010.72 1011.55 1011.65 1011.51 1011.51 1011.67 1011.97 1012.26 1012.11 1012.40 1012.49 1012.41 1012.37 1012.35 1012.24 1012.14 1012.05 1011.97 1012.06
1008.27 1007.86 1006.74 1005.86 1004.99 1004.82 1004.66 1004.86 1004.81 1003.89 1004.46 1004.56 1004.93 1004.49 1004.52 1005.13 1005.80 1006.41 1007.14 1007.97 1008.46 1009.22 1010.09 1010.68 1010.67 1010.65 1010.85 1011.17 1011.00 1011.23 1011.59 1011.94 1012.25 1012.52 1012.80 1013.09 1013.13 1013.17 1013.21 1013.08 1012.87 1012.73 1012.56 1012.50
1008.12 1007.17 1006.59 1005.94 1005.52 1004.60 1004.60 1004.79 1004.36 1004.06 1004.37 1005.02 1005.57 1005.90 1006.79 1005.56 1005.80 1006.44 1006.94 1007.61 1008.24 1008.91 1009.75 1010.37 1010.68 1010.89 1010.85 1010.91 1011.26 1011.67 1011.76 1011.93 1012.27 1012.78 1013.18 1013.52 1014.05 1014.29 1014.01 1013.83 1013.75 1013.37 1013.04 1012.95
1007.38 1006.96 1006.72 1006.33 1005.75 1005.20 1005.02 1005.52 1005.03 1005.21 1004.90 1005.04 1005.16 1005.66 1006.70 1007.75 1005.82 1006.29 1006.83 1007.44 1008.12 1008.57 1009.23 1010.01 1010.43 1010.57 1010.73 1010.80 1011.01 1011.51 1011.97 1012.16 1012.46 1012.83 1013.15 1013.60 1013.83 1014.12 1014.12 1014.00 1013.68 1013.36 1013.08 1013.09
1006.53 1006.16 1006.11 1005.97 1005.79 1005.40 1005.43 1005.69 1004.98 1005.11 1004.19 1004.91 1005.61 1006.85 1006.79 1007.89 1006.72 1005.90 1006.56 1007.18 1007.74 1008.14 1008.59 1009.35 1009.88 1010.24 1010.59 1010.64 1010.88 1011.31 1011.75 1012.19 1012.56 1012.97 1013.32 1013.54 1013.72 1013.95 1014.20 1014.32 1013.94 1013.83 1013.87 1013.73
1005.68 1005.84 1005.81 1005.39 1005.56 1005.34 1005.34 1005.54 1004.76 1004.98 1005.39 1004.90 1004.90 1004.99 1006.01 1006.35 1006.45 1006.27 1006.46 1006.63 1007.35 1007.81 1008.35 1008.82 1009.32 1009.98 1010.34 1010.70 1011.08 1011.45 1011.74 1011.92 1012.27 1012.65 1013.04 1013.39 1013.57 1013.75 1014.05 1014.30 1014.46 1014.56 1014.53 1014.41
1005.33 1005.36 1005.30 1005.15 1005.18 1005.47 1004.92 1004.96 1004.92 1004.96 1005.19 1005.78 1006.10 1006.31 1006.52 1006.27 1006.71 1006.45 1006.41 1006.46 1007.17 1007.73 1008.32 1008.65 1009.17 1009.74 1010.18 1010.37 1010.91 1011.36 1011.72 1012.03 1012.29 1012.50 1012.65 1012.85 1013.10 1013.33 1013.63 1014.01 1014.20 1014.50 1014.67 1014.81
1005.03 1005.16 1005.31 1005.47 1005.44 1005.48 1005.21 1004.72 1004.78 1004.65 1005.70 1006.53 1005.76 1005.91 1005.97 1006.18 1006.76 1006.44 1006.53 1006.80 1007.36 1008.01 1008.26 1008.31 1008.90 1009.35 1009.68 1010.03 1010.57 1011.03 1011.43 1011.62 1012.09 1012.44 1012.62 1012.81 1013.05 1013.27 1013.57 1013.90 1014.22 1014.47 1014.49 1014.45
1005.13 1005.16 1005.02 1004.93 1004.90 1004.82 1005.08 1004.72 1004.75 1005.05 1005.81 1006.14 1006.40 1007.64 1007.36 1006.65 1006.14 1006.40 1006.56 1006.67 1007.01 1007.69 1007.93 1008.27 1008.67 1008.95 1009.30 1009.65 1010.02 1010.54 1011.05 1011.50 1011.76 1012.18 1012.40 1012.52 1012.74 1013.04 1013.33 1013.69 1013.90 1014.21 1014.38 1014.42
1005.09 1004.52 1004.37 1004.57 1004.01 1004.11 1004.53 1004.47 1004.65 1004.98 1005.54 1006.26 1006.42 1006.51 1006.91 1006.19 1006.60 1006.32 1006.72 1006.97 1007.45 1007.86 1007.93 1007.99 1008.13 1008.56 1009.01 1009.31 1009.68 1010.15 1010.76 1011.31 1011.66 1011.89 1012.08 1012.28 1012.50 1012.75 1012.97 1013.20 1013.39 1013.64 1013.74 1013.94
1004.43 1004.02 1003.51 1003.45 1003.26 1003.37 1004.13 1004.43 1004.30 1004.89 1004.65 1005.30 1006.43 1007.36 1006.89 1006.46 1006.08 1006.08 1006.77 1007.22 1007.54 1007.73 1007.94 1007.77 1007.83 1008.23 1008.76 1008.99 1009.41 1009.90 1010.52 1010.97 1011.38 1011.61 1011.75 1011.94 1012.14 1012.33 1012.64 1012.89 1013.11 1013.32 1013.45 1013.66
1004.52 1003.83 1003.52 1002.79 1002.89 1003.24 1003.44 1003.74 1004.23 1004.68 1004.61 1005.22 1006.16 1006.46 1006.54 1005.84 1005.98 1006.67 1006.75 1007.00 1006.98 1006.75 1007.01 1007.30 1007.78 1008.28 1008.44 1008.64 1008.97 1009.49 1010.07 1010.55 1010.92 1011.06 1011.39 1011.67 1011.83 1011.98 1012.12 1012.43 1012.67 1012.77 1012.93 1013.14
1003.80 1003.78 1003.56 1003.71 1003.09 1003.02 1003.20 1003.80 1004.28 1004.28 1004.85 1004.43 1005.48 1006.02 1005.65 1005.53 1005.95 1006.20 1006.60 1006.99 1006.65 1006.50 1006.63 1007.13 1007.60 1007.93 1008.14 1008.39 1008.72 1009.19 1009.71 1010.07 1010.40 1010.54 1010.81 1011.08 1011.34 1011.52 1011.63 1011.77 1012.00 1012.10 1012.29 1012.55
1004.16 1003.70 1003.67 1003.61 1002.97 1002.82 1003.07 1003.29 1003.38 1003.41 1003.74 1004.26 1005.04 1005.58 1004.84 1005.07 1005.25 1005.69 1005.68 1005.87 1006.03 1006.28 1006.64 1007.02 1007.32 1007.50 1007.81 1008.08 1008.51 1008.85 1009.19 1009.46 1009.65 1009.71 1009.81 1010.10 1010.44 1010.77 1010.91 1011.23 1011.38 1011.47 1011.55 1011.78
1004.04 1003.88 1004.10 1003.68 1004.20 1003.97 1003.09 1002.89 1002.89 1003.76 1004.33 1004.52 1004.38 1003.95 1003.97 1004.27 1004.67 1005.40 1006.02 1005.59 1005.83 1006.15 1006.37 1006.69 1006.87 1007.14 1007.36 1007.83 1008.23 1008.50 1008.86 1009.10 1009.02 1008.83 1009.07 1009.26 1009.35 1009.76 1009.99 1010.15 1010.39 1010.52 1010.70 1010.90
1004.12 1004.24 1004.02 1003.64 1003.85 1004.17 1004.52 1004.38 1004.13 1004.11 1003.88 1003.11 1003.47 1002.85 1003.48 1004.09 1004.75 1004.46 1004.45 1004.98 1005.25 1005.90 1006.14 1006.25 1006.53 1006.71 1007.01 1007.47 1007.79 1008.20 1008.57 1008.68 1008.67 1008.66 1008.76 1008.75 1009.07 1008.91 1008.99 1009.21 1009.61 1009.73 1009.77 1009.92
1005.03 1004.49 1004.39 1003.63 1004.82 1005.21 1004.91 1004.84 1004.70 1004.25 1003.76 1003.25 1002.91 1002.92 1003.16 1003.44 1003.52 1003.80 1004.32 1004.79 1004.97 1005.53 1005.67 1005.69 1005.95 1006.29 1006.84 1007.13 1007.42 1007.70 1007.94 1008.08 1008.03 1008.11 1008.24 1008.34 1008.30 1008.39 1008.31 1008.40 1008.45 1008.58 1008.98 1009.07
1005.50 1005.45 1005.05 1004.64 1004.38 1004.32 1004.05 1004.01 1004.71 1004.42 1004.20 1004.40 1004.17 1003.88 1003.50 1003.57 1003.60 1003.79 1003.97 1004.10 1004.36 1004.81 1005.02 1005.14 1005.58 1006.22 1006.58 1006.80 1007.03 1007.16 1007.22 1007.35 1007.52 1007.56 1007.57 1007.68 1007.70 1007.68 1007.79 1007.92 1007.94 1007.95 1007.86 1007.88
1005.83 1005.29 1005.28 1005.68 1005.61 1005.41 1004.74 1004.49 1004.31 1005.01 1004.81 1004.75 1005.02 1004.12 1003.44 1003.45 1003.48 1003.42 1003.45 1003.58 1003.78 1004.18 1004.40 1004.71 1005.30 1005.73 1006.09 1006.37 1006.51 1006.49 1006.68 1006.88 1007.01 1007.13 1007.14 1007.15 1007.24 1007.30 1007.35 1007.28 1007.10 1007.03 1007.05 1007.15
Wind_Speed
6 6 5 3 2 8 5 7 7 4 7 13 16 18 16 14 11 11 12 12 12 8 7 6 7 8 7 6 7 7 7 9 11 10 7 3 5 6 8 8 11 12 10 9
3 6 9 6 7 4 4 7 4 8 7 4 4 7 10 16 16 15 13 11 8 8 9 8 8 9 9 9 8 6 6 5 6 6 7 6 6 6 6 7 8 10 11 11
3 3 7 2 7 4 3 1 6 5 9 7 7 9 15 14 16 16 15 12 9 8 8 7 7 7 9 10 6 8 9 9 8 6 6 5 7 3 7 6 8 10 10 11
4 3 3 9 4 6 6 4 7 5 8 7 17 18 9 8 13 13 13 13 8 8 7 6 6 5 6 6 7 7 7 9 7 5 6 9 6 5 6 5 8 7 9 9
3 4 5 0 5 7 7 6 5 7 18 8 10 6 1 8 10 14 15 12 8 8 7 6 7 6 5 3 4 4 5 6 5 5 8 10 11 9 9 5 7 10 8 10
4 2 6 7 4 7 7 5 5 9 10 4 11 9 6 10 15 14 16 16 14 9 8 8 4 6 6 2 3 2 3 4 5 4 1 2 3 5 5 3 4 3 6 5
13 6 7 6 2 4 8 6 7 3 10 8 13 11 10 14 15 19 17 15 13 12 8 8 7 6 4 3 2 1 5 5 5 4 3 3 2 2 2 2 2 2 2 1
3 4 6 4 10 6 9 3 3 6 6 12 6 12 18 18 17 17 16 14 14 13 9 7 8 8 5 4 1 3 5 5 5 4 3 3 3 3 3 3 3 2 4 3
2 3 4 2 5 5 6 5 4 3 9 7 5 15 18 15 15 15 16 14 13 13 9 5 7 8 7 5 2 3 3 6 4 5 5 4 4 3 2 3 2 2 1 1
2 4 4 7 7 5 2 1 5 1 4 10 7 7 17 14 13 12 8 10 8 12 11 8 6 6 8 7 4 4 3 4 4 5 5 5 4 3 2 2 2 1 1 0
5 6 5 4 5 2 7 11 13 5 8 8 8 10 12 7 9 8 8 7 11 11 11 11 8 7 7 7 7 5 4 3 4 4 5 4 4 2 2 2 2 1 1 0
5 5 4 5 4 7 8 7 2 4 6 4 7 6 8 13 8 8 8 6 7 8 11 12 10 9 8 7 7 7 5 4 4 3 3 3 3 3 9 6 8 10 8 5
5 2 6 6 5 5 3 4 3 4 15 13 12 6 19 13 7 8 8 8 9 12 13 12 10 9 6 7 7 6 6 5 4 6 4 3 3 3 3 3 9 12 10 9
7 3 5 5 3 1 6 7 9 11 10 17 22 22 13 5 3 7 8 9 8 9 10 9 10 9 8 8 7 6 5 7 3 3 4 4 4 4 3 2 2 2 6 7
9 7 7 4 5 2 7 3 9 12 16 7 2 6 5 4 6 7 6 8 7 7 7 8 8 8 7 8 8 7 6 4 3 3 3 4 3 3 4 3 3 2 1 1
6 5 4 6 5 5 6 3 11 8 8 5 6 6 3 7 7 8 8 7 9 7 7 11 9 8 8 8 7 6 5 9 6 4 3 4 4 4 4 3 3 2 3 3
3 7 5 6 7 8 4 5 5 10 7 7 7 2 12 9 6 7 6 6 8 9 9 9 9 7 7 8 8 5 4 5 8 4 3 4 4 5 5 5 5 4 4 4
6 9 13 8 7 6 7 7 7 9 11 9 6 6 9 5 8 7 7 7 7 6 7 7 8 8 7 7 6 5 5 4 4 4 4 4 4 4 4 4 4 4 3 3
6 8 12 10 9 8 8 10 8 10 15 13 7 10 16 10 6 6 7 8 8 8 7 7 12 9 7 8 8 5 5 5 4 3 4 4 4 4 4 4 4 4 4 4
10 13 11 7 7 7 6 7 9 9 12 16 13 8 12 7 7 8 8 9 9 7 8 9 9 8 7 7 9 5 5 6 5 5 4 4 4 5 5 6 5 5 5 4
5 12 16 9 9 8 8 8 9 10 7 8 2 9 10 8 8 8 7 5 6 7 9 10 7 5 4 5 5 5 5 5 6 6 6 7 6 5 5 5 5 5 5 5
2 7 9 6 9 7 6 7 6 2 3 4 9 13 8 8 8 6 7 8 5 8 5 6 5 7 6 8 4 4 4 5 5 6 8 7 6 6 7 6 7 7 6 6
4 3 9 8 7 8 7 4 5 2 5 10 9 8 8 6 6 6 5 4 4 8 6 5 8 10 11 5 4 5 4 4 5 4 4 6 7 8 6 7 8 8 7 6
8 7 13 8 12 8 6 8 3 11 16 11 11 8 7 5 3 5 4 8 9 10 6 7 9 13 10 5 5 5 4 4 2 1 1 7 5 5 5 5 6 6 7 7
8 6 5 12 5 1 4 2 4 4 8 4 6 6 7 5 6 5 5 5 11 11 6 9 13 14 6 5 5 5 5 5 4 4 3 2 5 5 6 5 6 7 8 8
7 4 4 3 3 6 5 9 6 6 8 6 5 5 4 1 2 3 4 6 6 10 9 7 5 5 5 5 5 6 5 5 5 4 4 3 3 4 5 6 5 6 6 7
3 8 7 2 2 2 4 7 9 5 5 5 3 5 5 3 5 5 6 5 5 7 6 5 5 6 5 5 6 6 5 4 5 5 5 5 4 5 5 5 5 5 5 5
Wind_Direction
183 209 150 167 245 152 149 170 134 210 208 197 183 168 171 161 153 139 137 143 154 166 143 142 157 190 190 190 184 179 187 211 219 240 219 205 254 232 221 189 206 210 215 224
201 195 170 185 188 211 189 161 147 136 224 225 298 143 158 169 160 152 155 169 165 160 138 143 166 188 191 207 208 189 222 218 217 222 256 232 226 201 189 211 211 209 208 210
267 338 124 26 205 174 314 144 168 167 219 150 193 226 170 176 167 159 162 169 168 157 152 154 163 150 181 201 184 193 213 221 219 211 249 260 256 234 239 228 212 210 217 212
216 36 215 240 215 152 165 236 269 227 225 222 203 207 162 166 158 154 148 156 158 147 147 154 156 150 161 167 182 199 214 231 231 243 269 268 248 225 252 252 254 231 236 225
160 179 270 276 162 151 162 254 276 305 322 238 195 79 223 172 164 148 146 147 149 143 145 147 154 154 143 173 192 177 184 190 212 220 238 253 268 268 260 252 253 239 216 216
33 301 215 243 181 115 93 285 340 18 323 178 146 172 223 163 144 135 136 138 139 134 129 130 152 139 133 160 88 91 135 145 126 113 105 140 226 221 225 224 241 265 254 236
210 189 302 335 300 98 118 219 317 347 310 240 183 191 162 143 139 140 142 143 136 134 141 152 149 134 129 106 51 281 121 105 86 67 47 44 357 14 321 281 227 252 280 145
123 171 196 120 310 172 203 241 36 2 319 301 222 128 143 147 143 142 141 135 134 135 147 159 136 119 117 96 14 47 118 114 113 87 38 16 54 27 26 5 349 222 179 185
171 213 294 306 211 284 314 92 81 293 346 340 219 143 143 143 140 143 143 146 147 148 143 152 134 131 131 161 146 82 151 137 137 107 77 33 28 23 18 11 22 38 138 166
6 230 260 293 314 88 60 232 267 48 83 51 42 137 140 141 146 145 142 149 149 141 147 155 153 144 144 148 127 113 23 146 113 87 80 50 36 16 20 9 36 67 93 88
248 279 266 268 263 15 20 350 18 120 124 112 66 56 358 152 144 150 159 153 158 157 157 160 156 159 160 153 139 128 119 137 126 113 102 97 78 28 8 65 315 40 72 51
229 218 209 230 280 337 45 333 47 199 90 131 114 354 348 299 168 163 157 151 152 155 152 160 168 169 170 160 150 149 146 133 152 131 133 134 116 90 55 36 32 32 34 37
232 191 213 211 237 255 153 345 59 154 140 132 131 177 252 251 256 169 161 162 162 167 163 164 170 167 166 151 144 151 145 140 147 149 163 160 135 124 110 37 65 48 28 33
222 170 286 271 212 311 188 170 248 193 190 160 175 192 203 184 252 182 176 177 161 157 168 161 160 159 159 149 140 138 141 147 144 159 167 165 166 151 148 150 116 12 26 17
248 208 232 289 335 341 283 154 191 190 189 166 207 255 251 266 213 171 161 158 164 149 143 140 140 153 168 145 143 149 152 150 158 173 171 169 167 162 160 153 152 159 145 352
255 248 265 257 266 266 284 87 106 122 107 184 140 350 297 253 199 157 154 140 130 161 166 146 155 169 160 149 151 154 167 157 158 165 167 168 171 169 149 160 167 203 208 205
279 286 238 246 230 231 182 130 113 111 107 66 69 160 240 191 153 160 175 147 142 156 161 153 167 162 158 164 157 156 159 164 161 158 179 180 177 176 169 178 195 193 212 213
244 271 278 249 209 219 160 154 139 140 125 131 57 339 319 172 197 178 165 142 125 138 160 167 157 158 164 165 158 167 155 158 165 173 187 189 185 185 187 186 192 214 213 199
302 291 272 209 206 198 154 175 152 151 130 116 124 269 282 225 182 149 148 147 155 156 204 172 165 154 170 175 165 165 159 165 176 190 192 188 192 188 188 195 204 208 205 195
328 347 316 177 162 171 186 178 180 173 178 159 177 284 239 178 163 169 164 175 186 187 165 180 171 175 181 189 167 167 173 172 186 196 188 202 197 201 197 195 198 203 199 194
332 26 345 223 196 195 174 147 181 193 193 113 243 259 205 172 175 161 144 169 222 181 168 164 173 181 181 187 173 174 178 177 189 206 197 204 202 207 213 195 199 204 201 196
310 337 350 233 184 186 175 169 157 175 77 342 280 220 164 170 165 180 190 179 186 175 152 171 183 189 191 184 182 203 209 213 215 225 215 195 189 204 209 191 199 209 207 198
253 110 330 50 19 320 165 161 102 240 216 246 231 186 173 175 165 147 207 231 168 179 169 178 182 192 207 185 198 213 209 218 265 214 206 208 195 197 205 190 196 206 209 206
16 94 93 44 19 31 20 341 205 204 239 225 222 179 155 155 224 215 174 166 179 167 180 183 194 205 187 197 200 193 168 183 183 49 249 213 223 232 203 202 177 201 206 201
23 63 114 114 119 333 121 36 124 59 13 300 195 190 182 204 165 198 161 182 191 180 189 192 202 209 200 200 204 211 192 198 205 189 207 268 242 216 226 209 219 191 195 208
29 38 339 279 163 163 130 83 45 21 32 4 348 339 326 282 184 182 186 208 175 179 187 194 186 179 188 191 201 217 225 217 210 227 219 231 247 218 210 226 228 233 220 199
8 39 12 62 262 312 61 78 71 351 340 358 304 292 348 275 216 198 191 191 179 183 176 180 168 184 189 197 210 216 220 240 236 229 233 233 215 220 218 219 208 207 214 213